Location: Alladorf
(49.9620°N, 11.3790°E)
Time: 21:22:06
(UTC+00:00)

Cosmos 990 Rocket - Pass Details

Date: 29 November 2020
Orbit: 747 x 768 km, 74.0° (Epoch: 25 January)

Event Time Altitude Azimuth Distance (km) Brightness Sun altitude
Rises 05:29:36 0° 227° (SW) 3,222 7.0 -12.2°
Reaches altitude 10° 05:32:07 10° 235° (SW) 2,302 6.1 -11.8°
Maximum altitude 05:36:59 38° 304° (WNW) 1,158 4.5 -11.1°
Drops below altitude 10° 05:41:54 10° 12° (NNE) 2,321 6.4 -10.4°
Sets 05:44:27 0° 21° (NNE) 3,251 7.2 -10.0°
